1484830800.85,55668,3.88,74022.3,-5.67,-40.53,-40.73,0,*5E
1484830802.06,55669,3.88,74022.3,-5.67,-40.91,-41.17,0,*52
1484830803.29,55670,3.88,74016.3,-5.67,-41.81,-42.37,0,*5B
1484830804.53,55671,3.88,74016.3,-5.67,-42.31,-42.75,0,*54
1484830805.79,55672,3.88,74012.3,-5.69,-42.75,-43.21,0,*59
1484830807.04,55673,3.88,74016.5,-5.69,-41.93,-42.13,0,*53
1484830808.28,55674,3.88,74014.8,-5.71,-41.93,-42.25,0,*58
1484830809.52,55675,3.88,74016.0,-5.71,-41.41,-41.81,0,*5B
1484830810.75,55676,3.88,74014.5,-5.71,-42.05,-42.25,0,*56
1484830812.01,55677,3.88,74018.8,-5.73,-41.23,-41.41,0,*53
1484830813.3,55678,3.88,74022.0,-5.73,-42.05,-42.31,0,*5F
1484830814.51,55679,3.88,74012.3,-5.75,-41.49,-41.73,0,*56
1484830815.77,55680,3.88,74014.8,-5.73,-40.85,-40.91,0,*5A
1484830817.01,55681,3.88,74020.0,-5.73,-40.91,-41.03,0,*54
1484830818.27,55682,3.88,74014.3,-5.73,-40.65,-40.85,0,*53
1484830819.5,55683,3.88,74014.3,-5.71,-40.79,-41.03,0,*52
1484830820.74,55684,3.88,74012.3,-5.71,-40.41,-40.65,0,*5F
1484830821.97,55685,3.88,74012.8,-5.71,-40.29,-40.65,0,*50
1484830823.25,55686,3.88,74016.5,-5.69,-39.97,-40.21,0,*51
1484830824.51,55687,3.88,74018.5,-5.69,-40.41,-40.73,0,*52
1484830825.75,55688,3.88,74022.0,-5.69,-40.73,-40.91,0,*50
1484830827.04,55689,3.88,74020.8,-5.69,-40.41,-40.59,0,*54
1484830828.3,55690,3.88,74022.5,-5.69,-40.35,-40.59,0,*5F
1484830829.58,55691,3.88,74022.0,-5.69,-40.21,-40.59,0,*5B
1484830830.83,55692,3.88,74022.5,-5.69,-40.21,-40.53,0,*52
1484830832.12,55693,3.88,74020.5,-5.69,-40.41,-40.59,0,*5F
1484830833.32,55694,3.88,74020.0,-5.67,-40.53,-40.53,0,*5F
1484830834.55,55695,3.88,74018.8,-5.67,-40.21,-40.53,0,*5B
1484830835.78,55696,3.88,74016.5,-5.65,-40.91,-41.17,0,*50
1484830837.04,55697,3.88,74016.5,-5.65,-40.59,-40.91,0,*5A
1484830838.27,55698,3.88,74022.5,-5.67,-41.11,-41.35,0,*55
1484830839.51,55699,3.88,74022.8,-5.65,-41.49,-41.73,0,*59
1484830840.74,55700,3.88,74024.3,-5.65,-40.73,-40.91,0,*5D
1484830842.0,55701,3.88,74016.8,-5.65,-40.41,-40.73,0,*51
1484830843.24,55702,3.88,74022.8,-5.67,-40.73,-40.97,0,*5B
1484830844.46,55703,3.88,74020.5,-5.65,-40.35,-40.73,0,*50
1484830845.73,55704,3.88,74022.3,-5.65,-40.41,-40.73,0,*54
1484830846.93,55705,3.88,74024.3,-5.67,-40.35,-40.53,0,*56
1484830848.15,55706,3.88,74022.8,-5.63,-40.15,-40.47,0,*56
1484830849.42,55707,3.88,74020.3,-5.65,-40.15,-40.41,0,*57
1484830850.68,55708,3.88,74022.8,-5.65,-40.41,-40.73,0,*58
1484830851.91,55709,3.88,74022.0,-5.61,-40.65,-40.91,0,*57
1484830853.15,55710,3.88,74022.3,-5.61,-40.47,-40.73,0,*53
1484830854.35,55711,3.88,74022.0,-5.63,-40.65,-41.11,0,*55
1484830855.59,55712,3.88,74022.8,-5.61,-40.65,-41.03,0,*57
1484830856.82,55713,3.88,74022.3,-5.63,-40.29,-40.53,0,*58
1484830858.02,55714,3.88,74018.3,-5.63,-40.53,-40.73,0,*50
1484830859.23,55715,3.88,74022.3,-5.63,-41.29,-41.49,0,*55
1484830860.46,55716,3.88,74024.5,-5.61,-40.47,-40.53,0,*57
1484830861.7,55717,3.88,74022.3,-5.61,-40.73,-40.73,0,*53
1484830862.93,55718,3.88,74022.3,-5.61,-40.53,-40.65,0,*59
1484830864.19,55719,3.88,74024.0,-5.61,-40.53,-40.85,0,*56
1484830865.43,55720,3.88,74020.3,-5.61,-40.73,-41.03,0,*51
1484830866.69,55721,3.88,74016.3,-5.61,-40.85,-41.11,0,*5A
1484830867.92,55722,3.88,74012.3,-5.61,-41.11,-41.41,0,*50
1484830869.16,55723,3.88,74018.0,-5.63,-40.65,-40.85,0,*58
1484830870.42,55724,3.88,74022.3,-5.61,-41.55,-41.87,0,*5C
1484830871.66,55725,3.88,74022.5,-5.61,-41.11,-41.41,0,*57
1484830872.93,55726,3.88,74022.5,-5.61,-40.91,-41.23,0,*59
1484830874.13,55727,3.88,74020.5,-5.63,-41.11,-41.41,0,*57
1484830875.35,55728,3.88,74022.0,-5.63,-40.73,-41.03,0,*5B
1484830876.61,55729,3.88,74020.8,-5.61,-40.85,-41.11,0,*52
1484830877.82,55730,3.88,74018.0,-5.63,-40.47,-40.73,0,*53
1484830879.03,55731,3.88,74016.3,-5.63,-40.47,-40.65,0,*55
1484830880.29,55732,3.88,74014.3,-5.61,-40.73,-41.23,0,*50
1484830881.52,55733,3.88,74018.5,-5.61,-40.53,-40.73,0,*57
1484830882.78,55734,3.88,74016.3,-5.61,-40.53,-40.85,0,*59
1484830884.01,55735,3.88,74016.3,-5.61,-40.47,-40.73,0,*54
1484830885.25,55736,3.88,74010.3,-5.61,-40.73,-41.03,0,*56
1484830886.46,55737,3.88,74016.8,-5.63,-40.35,-40.53,0,*53
1484830887.69,55738,3.88,74010.5,-5.61,-40.53,-40.65,0,*5B
1484830888.93,55739,3.88,74012.8,-5.61,-40.73,-41.11,0,*5A
1484830890.18,55740,3.88,74012.5,-5.57,-40.79,-41.03,0,*58
1484830891.44,55741,3.88,74012.5,-5.57,-40.79,-41.17,0,*5C
1484830892.69,55742,3.88,74012.3,-5.57,-40.47,-40.79,0,*5B
1484830893.95,55743,3.88,74014.5,-5.57,-40.79,-41.17,0,*5E
1484830895.21,55744,3.88,74012.8,-5.57,-40.47,-40.85,0,*5E
1484830896.44,55745,3.88,74008.5,-5.55,-40.41,-40.73,0,*52
1484830897.64,55746,3.88,74010.5,-5.55,-40.53,-40.73,0,*52
1484830898.85,55747,3.88,74010.8,-5.55,-40.53,-40.91,0,*5F
1484830900.09,55748,3.88,74012.8,-5.55,-40.73,-40.97,0,*54
1484830901.34,55749,3.88,74014.8,-5.55,-40.21,-40.41,0,*59
1484830902.54,55750,3.88,74012.8,-5.55,-40.53,-40.73,0,*55
1484830903.74,55751,3.88,74008.8,-5.55,-40.47,-40.65,0,*56
1484830904.97,55752,3.88,74016.0,-5.55,-39.97,-40.15,0,*51
1484830906.2,55753,3.88,74026.5,-5.55,-40.79,-41.17,0,*5D
1484830907.42,55754,3.88,74024.5,-5.55,-40.53,-40.79,0,*5B
1484830908.67,55755,3.88,74026.5,-5.55,-40.15,-40.41,0,*53
1484830909.95,55756,3.88,74024.5,-5.57,-40.21,-40.59,0,*5C
1484830911.19,55757,3.88,74024.3,-5.55,-39.79,-40.03,0,*53
1484830912.45,55758,3.88,74024.3,-5.53,-40.03,-40.21,0,*59
1484830913.68,55759,3.88,74028.8,-5.53,-40.53,-40.91,0,*56
1484830914.97,55760,3.88,74024.8,-5.53,-40.41,-40.41,0,*52
1484830916.23,55761,3.88,74028.0,-5.53,-39.97,-40.15,0,*57
1484830917.47,55762,3.88,74030.0,-5.51,-40.09,-40.35,0,*5D
1484830918.68,55763,3.88,74026.5,-5.51,-40.35,-40.53,0,*53
1484830919.89,55764,3.88,74024.0,-5.51,-40.47,-40.65,0,*54
1484830921.15,55765,3.88,74022.0,-5.53,-39.91,-40.21,0,*52
1484830922.37,55766,3.88,74016.3,-5.51,-40.15,-40.47,0,*51
1484830923.6,55767,3.88,74018.5,-5.51,-40.53,-40.85,0,*5C
1484830924.86,55768,3.88,74016.8,-5.53,-41.11,-41.35,0,*5C
1484830926.07,55769,3.88,74018.3,-5.51,-40.73,-41.03,0,*5F
1484830927.28,55770,3.88,74020.5,-5.51,-40.73,-40.91,0,*5D
1484830928.5,55771,3.88,74016.8,-5.51,-40.91,-41.11,0,*59
1484830929.71,55772,3.88,74016.3,-5.51,-40.35,-40.65,0,*56
1484830930.94,55773,3.88,74016.8,-5.51,-40.09,-40.47,0,*58
1484830932.16,55774,3.88,74016.0,-5.51,-40.15,-40.53,0,*57
1484830933.42,55775,3.88,74010.8,-5.49,-40.29,-40.47,0,*55
1484830934.68,55776,3.88,74008.0,-5.49,-39.91,-40.09,0,*51
1484830935.94,55777,3.88,74012.0,-5.49,-39.85,-39.97,0,*5C
1484830937.19,55778,3.88,74010.8,-5.49,-41.73,-41.93,0,*5E
1484830938.45,55779,3.88,74012.0,-5.49,-41.93,-42.13,0,*5A
1484830939.74,55780,3.88,74008.8,-5.49,-41.93,-42.31,0,*5C
1484830941.0,55781,3.88,74012.0,-5.53,-41.81,-41.99,0,*54
1484830942.23,55782,3.88,74012.8,-5.53,-41.99,-42.37,0,*59
1484830943.44,55783,3.88,74014.8,-5.55,-42.37,-42.63,0,*58
1484830944.68,55784,3.88,74014.8,-5.55,-42.45,-42.51,0,*5B
1484830945.93,55785,3.88,74012.0,-5.55,-41.55,-41.81,0,*56
1484830947.17,55786,3.88,74016.5,-5.57,-41.03,-41.41,0,*58
1484830948.46,55787,3.88,74014.0,-5.57,-41.81,-42.19,0,*5D
1484830949.74,55788,3.88,74016.5,-5.57,-40.85,-41.23,0,*5D
1484830950.94,55789,3.88,74022.5,-5.55,-40.53,-40.73,0,*51
1484830952.2,55790,3.88,74028.3,-5.57,-41.35,-41.61,0,*58
1484830953.47,55791,3.88,74026.0,-5.57,-41.41,-41.67,0,*5C
1484830954.68,55792,3.88,74026.3,-5.55,-40.91,-41.11,0,*50
1484830955.94,55793,3.88,74026.8,-5.57,-41.03,-41.35,0,*5F
1484830957.21,55794,3.88,74026.0,-5.57,-41.23,-41.41,0,*59
1484830958.47,55795,3.88,74028.0,-5.57,-41.03,-41.35,0,*59
1484830959.73,55796,3.88,74030.5,-5.57,-40.47,-40.59,0,*50
1484830961.01,55797,3.88,74028.3,-5.57,-40.59,-40.79,0,*5C
1484830962.27,55798,3.88,74028.3,-5.57,-40.41,-40.47,0,*57
1484830963.56,55799,3.88,74024.5,-5.57,-40.41,-40.59,0,*59
1484830964.82,55800,3.88,74030.0,-5.57,-40.59,-40.65,0,*50
1484830966.04,55801,3.88,74026.0,-5.57,-40.65,-41.17,0,*5A
1484830967.24,55802,3.88,74022.0,-5.55,-40.53,-40.73,0,*5D
1484830968.44,55803,3.88,74026.0,-5.55,-40.53,-40.73,0,*5C
1484830969.68,55804,3.88,74020.0,-5.55,-40.35,-40.59,0,*53
1484830970.91,55805,3.88,74022.8,-5.55,-39.91,-40.21,0,*5D
1484830972.17,55806,3.88,74020.3,-5.53,-40.53,-40.79,0,*55
1484830973.42,55807,3.88,74018.0,-5.55,-40.79,-40.97,0,*5A
1484830974.63,55808,3.88,74020.8,-5.55,-41.17,-41.41,0,*56
1484830975.84,55809,3.88,74024.0,-5.55,-41.41,-41.73,0,*55
1484830977.07,55810,3.88,74026.5,-5.55,-40.79,-41.11,0,*53
1484830978.29,55811,3.88,74022.8,-5.55,-40.53,-40.79,0,*55
1484830979.5,55812,3.88,74022.3,-5.55,-40.73,-41.11,0,*5B
1484830980.73,55813,3.88,74020.3,-5.55,-40.79,-41.11,0,*50
1484830981.99,55814,3.88,74018.0,-5.57,-41.67,-41.99,0,*5B
1484830983.27,55815,3.88,74020.3,-5.57,-40.59,-40.79,0,*59
1484830984.52,55816,3.88,74018.8,-5.55,-40.59,-40.79,0,*58
1484830985.75,55817,3.88,74026.0,-5.55,-40.79,-41.17,0,*52
1484830986.98,55818,3.88,74028.5,-5.55,-41.55,-41.73,0,*50
1484830988.21,55819,3.88,74020.5,-5.55,-41.29,-41.55,0,*5E
1484830989.47,55820,3.88,74024.5,-5.55,-40.59,-40.97,0,*5D
1484830990.73,55821,3.88,74028.0,-5.53,-40.79,-41.11,0,*57
1484830992.02,55822,3.88,74024.3,-5.57,-40.59,-40.85,0,*5E
1484830993.31,55823,3.88,74026.0,-5.53,-40.59,-40.97,0,*58
1484830994.54,55824,3.88,74030.5,-5.53,-40.73,-41.11,0,*58
1484830995.77,55825,3.88,74024.5,-5.55,-40.53,-40.59,0,*50
1484830996.99,55826,3.88,74024.8,-5.55,-40.15,-40.35,0,*5B
1484830998.22,55827,3.88,74030.5,-5.55,-40.03,-40.21,0,*58
1484830999.44,55828,3.88,74026.5,-5.55,-40.21,-40.53,0,*52
1484831000.7,55829,3.88,74032.0,-5.55,-40.79,-40.97,0,*56
1484831001.98,55830,3.88,74024.5,-5.53,-40.59,-40.79,0,*5A
1484831003.22,55831,3.88,74026.5,-5.51,-40.91,-41.23,0,*53
1484831004.48,55832,3.88,74022.0,-5.53,-40.79,-41.11,0,*55
1484831005.72,55833,3.88,74020.3,-5.53,-40.73,-40.91,0,*57
1484831006.99,55834,3.88,74018.0,-5.53,-41.17,-41.35,0,*5C
1484831008.19,55835,3.88,74014.3,-5.51,-40.65,-40.91,0,*54
1484831009.4,55836,3.88,74010.0,-5.51,-40.47,-40.73,0,*5B
1484831010.66,55837,3.88,74012.0,-5.53,-41.35,-41.61,0,*5E
1484831011.9,55838,3.88,74014.0,-5.53,-41.41,-41.61,0,*52
1484831013.11,55839,3.88,74014.0,-5.51,-40.65,-41.03,0,*52
1484831014.34,55840,3.88,74012.3,-5.53,-40.73,-41.11,0,*5A
1484831015.6,55841,3.88,74010.5,-5.53,-41.41,-41.81,0,*52
1484831016.83,55842,3.88,74012.8,-5.53,-41.73,-42.13,0,*58
1484831018.1,55843,3.88,74014.5,-5.53,-42.31,-42.63,0,*5B
1484831019.31,55844,3.88,74016.0,-5.55,-42.75,-43.01,0,*5F
1484831020.54,55845,3.88,74012.8,-5.55,-41.99,-42.31,0,*5D
1484831021.82,55846,3.88,74016.8,-5.57,-42.57,-42.69,0,*50
1484831023.03,55847,3.88,74018.5,-5.63,-41.73,-41.87,0,*50
1484831024.25,55848,3.88,74020.8,-5.63,-41.87,-42.25,0,*5F
1484831025.5,55849,3.88,74018.5,-5.63,-42.05,-42.45,0,*51
1484831026.79,55850,3.88,74014.0,-5.61,-41.23,-41.55,0,*5E
1484831028.04,55851,3.88,74018.8,-5.63,-41.87,-42.31,0,*52
1484831029.25,55852,3.88,74018.5,-5.63,-42.25,-42.51,0,*5C
1484831030.51,55853,3.88,74012.5,-5.63,-42.05,-42.31,0,*59
1484831031.77,55854,3.88,74018.0,-5.65,-41.99,-42.31,0,*5E
1484831033.03,55855,3.88,74016.5,-5.65,-42.69,-43.15,0,*54
1484831034.27,55856,3.88,74014.0,-5.63,-41.41,-41.67,0,*5F
1484831035.56,55857,3.88,74016.5,-5.65,-40.79,-40.97,0,*5C
1484831036.82,55858,3.88,74018.3,-5.65,-41.35,-41.61,0,*52
1484831038.04,55859,3.88,74012.0,-5.65,-41.11,-41.49,0,*5F
1484831039.28,55860,3.88,74016.5,-5.65,-40.91,-41.29,0,*5A
1484831040.54,55861,3.88,74014.0,-5.65,-41.35,-41.61,0,*58
1484831041.79,55862,3.88,74016.5,-5.65,-41.29,-41.55,0,*51
1484831043.08,55863,3.88,74014.8,-5.65,-41.35,-41.55,0,*5D
1484831044.33,55864,3.88,74002.0,-5.67,-41.55,-41.93,0,*54
1484831045.62,55865,3.88,74004.8,-5.65,-41.93,-42.31,0,*56
1484831046.87,55866,3.88,74006.8,-5.65,-43.15,-43.55,0,*5A
1484831048.11,55867,3.88,74000.8,-5.69,-43.41,-43.95,0,*5A
1484831049.36,55868,3.88,74006.8,-5.69,-43.35,-43.81,0,*53
1484831050.6,55869,3.88,74004.5,-5.71,-42.89,-43.29,0,*5F
1484831051.83,55870,3.88,74004.5,-5.73,-43.49,-43.95,0,*5F
1484831053.07,55871,3.88,74006.0,-5.75,-43.35,-43.67,0,*5E
1484831054.33,55872,3.88,74006.5,-5.75,-42.95,-43.29,0,*5C
1484831055.54,55873,3.88,74002.5,-5.75,-42.63,-42.89,0,*5F
1484831056.79,55874,3.88,74006.0,-5.77,-43.21,-43.75,0,*5F
1484831058.0,55875,3.88,74010.0,-5.79,-43.35,-43.95,0,*5B
1484831059.26,55876,3.88,74008.5,-5.79,-43.55,-44.01,0,*54
1484831060.47,55877,3.88,74008.0,-5.79,-43.35,-43.61,0,*52
1484831061.75,55878,3.88,74010.5,-5.85,-43.67,-44.21,0,*5A
1484831063.01,55879,3.88,74014.3,-5.85,-43.61,-44.01,0,*5F
1484831064.25,55880,3.88,74010.0,-5.87,-43.35,-43.67,0,*5D
1484831065.47,55881,3.88,74010.3,-5.89,-43.35,-43.87,0,*5C
1484831066.7,55882,3.88,74012.3,-5.89,-43.15,-43.49,0,*5F
1484831067.98,55883,3.88,74012.3,-5.89,-42.45,-42.69,0,*59
1484831069.22,55884,3.88,74014.0,-5.89,-42.25,-42.51,0,*53
1484831070.51,55885,3.88,74010.8,-5.89,-42.05,-42.31,0,*56
1484831071.79,55886,3.88,74008.3,-5.89,-41.93,-41.93,0,*52
1484831073.04,55887,3.88,74010.3,-5.89,-42.25,-42.45,0,*55
1484831074.3,55888,3.88,74008.8,-5.89,-41.93,-42.25,0,*52
1484831075.56,55889,3.88,74010.0,-5.91,-42.31,-42.57,0,*54
1484831076.8,55890,3.88,74010.5,-5.91,-42.31,-42.75,0,*5C
1484831078.09,55891,3.88,74010.3,-5.93,-42.45,-42.83,0,*55
1484831079.35,55892,3.88,74014.8,-5.91,-42.69,-42.95,0,*5D
1484831080.64,55893,3.88,74012.8,-5.93,-42.57,-42.95,0,*53
1484831081.88,55894,3.88,74012.8,-5.93,-42.75,-43.15,0,*5D
1484831083.11,55895,3.88,74012.5,-5.93,-42.63,-43.01,0,*5E
1484831084.37,55896,3.88,74008.0,-5.93,-42.25,-42.45,0,*5E
1484831085.61,55897,3.88,74012.3,-5.95,-42.37,-42.57,0,*59
1484831086.86,55898,3.88,74016.0,-5.97,-42.57,-42.95,0,*5C
1484831088.09,55899,3.88,74012.5,-5.97,-41.99,-42.19,0,*58
1484831089.3,55900,3.88,74012.8,-5.95,-41.73,-41.99,0,*54
1484831090.54,55901,3.88,74020.0,-5.97,-42.45,-42.75,0,*50
1484831091.8,55902,3.88,74022.3,-5.95,-41.81,-41.93,0,*51
1484831093.0,55903,3.88,74018.8,-5.97,-41.41,-41.73,0,*50
1484831094.21,55904,3.88,74020.8,-5.95,-41.61,-41.99,0,*53
1484831095.44,55905,3.88,74024.0,-5.97,-40.65,-40.97,0,*5A
1484831096.67,55906,3.88,74022.0,-5.95,-40.65,-40.79,0,*5B
1484831097.92,55907,3.88,74020.8,-5.95,-41.03,-41.23,0,*55
1484831099.18,55908,3.88,74022.3,-5.93,-41.23,-41.41,0,*5A
1484831100.44,55909,3.88,74022.8,-5.93,-41.23,-41.61,0,*59
1484831101.68,55910,3.88,74022.8,-5.93,-41.17,-41.41,0,*54
1484831102.97,55911,3.88,74020.5,-5.93,-41.35,-41.55,0,*50
1484831104.23,55912,3.88,74020.0,-5.93,-41.35,-41.61,0,*54
1484831105.45,55913,3.88,74020.8,-5.91,-40.91,-41.03,0,*5C
1484831106.69,55914,3.88,74020.8,-5.93,-41.17,-41.41,0,*50
1484831107.9,55915,3.88,74020.3,-5.91,-41.11,-41.29,0,*5B
1484831109.13,55916,3.88,74014.5,-5.91,-41.17,-41.55,0,*55
1484831110.42,55917,3.88,74022.3,-5.93,-42.19,-42.45,0,*59
1484831111.66,55918,3.88,74016.5,-5.91,-41.99,-42.31,0,*5C
1484831112.9,55919,3.88,74022.8,-5.91,-41.67,-41.99,0,*5D
1484831114.13,55920,3.88,74020.5,-5.93,-41.99,-42.37,0,*53
1484831115.37,55921,3.88,74012.5,-5.91,-42.19,-42.37,0,*5B
1484831116.65,55922,3.88,74012.8,-5.93,-42.05,-42.45,0,*52
1484831117.93,55923,3.88,73998.0,-5.93,-42.19,-42.45,0,*5E
1484831119.22,55924,3.88,73996.5,-5.93,-42.19,-42.45,0,*59
1484831120.46,55925,3.88,74000.5,-5.93,-41.99,-42.25,0,*55
1484831121.74,55926,3.88,74002.0,-5.93,-42.45,-42.83,0,*58
1484831122.97,55927,3.88,74000.8,-5.97,-41.41,-41.81,0,*5B
1484831124.24,55928,3.88,74006.3,-5.95,-41.23,-41.55,0,*5B
1484831125.52,55929,3.88,74012.3,-5.93,-41.81,-42.05,0,*52
1484831126.76,55930,3.88,74010.3,-5.95,-41.17,-41.55,0,*55
1484831128.0,55931,3.88,74008.0,-5.95,-40.85,-41.17,0,*58
1484831129.26,55932,3.88,74010.8,-5.95,-40.59,-40.85,0,*50
1484831130.5,55933,3.88,74006.8,-5.95,-41.17,-41.35,0,*50
1484831131.79,55934,3.88,74008.5,-5.93,-40.79,-40.85,0,*52
1484831133.05,55935,3.88,74010.3,-5.91,-40.97,-41.35,0,*5B
1484831134.31,55936,3.88,74010.0,-5.93,-41.35,-41.61,0,*52
1484831135.54,55937,3.88,74014.0,-5.91,-41.67,-42.13,0,*50
1484831136.78,55938,3.88,74012.5,-5.93,-42.37,-42.63,0,*5C
1484831138.08,55939,3.88,74008.0,-5.93,-42.45,-42.95,0,*51
1484831139.33,55940,3.88,74012.8,-5.97,-42.19,-42.57,0,*5C
1484831140.54,55941,3.88,74012.8,-5.97,-42.37,-42.63,0,*56
1484831141.77,55942,3.88,74012.0,-5.95,-41.73,-42.05,0,*54
1484831143.01,55943,3.88,74012.0,-5.95,-41.93,-42.25,0,*59
1484831144.26,55944,3.88,74012.3,-5.97,-41.55,-41.81,0,*5B
1484831145.51,55945,3.88,74010.3,-5.95,-41.03,-41.35,0,*54
1484831146.75,55946,3.88,74012.8,-5.95,-40.65,-40.97,0,*5F
1484831147.99,55947,3.88,74010.0,-5.95,-41.17,-41.23,0,*54
1484831149.25,55948,3.88,74012.8,-5.95,-41.81,-42.05,0,*53
1484831150.49,55949,3.88,74018.3,-5.95,-42.45,-42.75,0,*5E
1484831151.72,55950,3.88,74018.8,-5.95,-41.61,-41.93,0,*58
1484831152.96,55951,3.88,74018.8,-5.97,-41.03,-41.23,0,*54
1484831154.19,55952,3.88,74014.8,-5.97,-41.35,-41.73,0,*57
1484831155.43,55953,3.88,74014.0,-5.95,-41.35,-41.61,0,*57
1484831156.66,55954,3.88,74016.0,-5.97,-41.35,-41.61,0,*52
1484831157.9,55955,3.88,74020.3,-5.95,-41.03,-41.35,0,*55
1484831159.12,55956,3.88,74016.0,-5.95,-41.41,-41.73,0,*52
1484831160.36,55957,3.88,74016.3,-5.95,-41.35,-41.41,0,*51
1484831161.58,55958,3.88,74018.3,-5.95,-41.03,-41.17,0,*58
1484831162.82,55959,3.88,74012.3,-5.95,-40.79,-41.03,0,*50
1484831164.07,55960,3.88,74012.5,-5.95,-41.55,-41.93,0,*5C
1484831165.34,55961,3.88,74018.3,-5.95,-41.23,-41.55,0,*56
1484831166.58,55962,3.88,74012.3,-5.95,-41.61,-41.93,0,*59
1484831167.82,55963,3.88,74014.3,-5.95,-41.03,-41.35,0,*50
1484831169.07,55964,3.88,74020.3,-5.95,-41.03,-41.23,0,*50
1484831170.33,55965,3.88,74018.5,-5.95,-41.93,-42.19,0,*52
1484831171.53,55966,3.88,74018.8,-5.97,-41.17,-41.61,0,*53
1484831172.74,55967,3.88,74018.8,-5.95,-41.41,-41.61,0,*53
1484831173.98,55968,3.88,74022.8,-5.95,-41.17,-41.35,0,*5E
1484831175.22,55969,3.88,74018.5,-5.95,-41.55,-41.99,0,*5F
1484831176.48,55970,3.88,74018.3,-5.95,-41.55,-41.81,0,*5E
1484831177.69,55971,3.88,74016.3,-5.95,-41.99,-42.25,0,*52
1484831178.94,55972,3.88,74022.8,-5.97,-41.93,-42.05,0,*5B
1484831180.17,55973,3.88,74022.3,-5.97,-40.79,-41.03,0,*5A
1484831181.43,55974,3.88,74024.0,-5.97,-40.79,-40.97,0,*51
1484831182.67,55975,3.88,74024.3,-5.95,-40.65,-40.97,0,*5F
1484831183.91,55976,3.88,74030.3,-5.95,-40.65,-40.97,0,*5C
1484831185.14,55977,3.88,74024.5,-5.95,-40.53,-40.85,0,*5B
1484831186.38,55978,3.88,74028.3,-5.95,-40.65,-40.97,0,*52
1484831187.64,55979,3.88,74024.8,-5.93,-40.53,-40.85,0,*53
1484831188.9,55980,3.88,74032.3,-5.93,-40.65,-40.85,0,*50
1484831190.16,55981,3.88,74028.8,-5.93,-41.17,-41.35,0,*5F
1484831191.45,55982,3.88,74022.5,-5.93,-40.59,-40.85,0,*5D
1484831192.68,55983,3.88,74022.3,-5.91,-40.47,-40.79,0,*52
1484831193.89,55984,3.88,74024.5,-5.91,-40.53,-40.91,0,*56
1484831195.12,55985,3.88,74024.5,-5.91,-40.79,-41.11,0,*56
1484831196.38,55986,3.88,74024.3,-5.91,-40.97,-41.35,0,*53
1484831197.6,55987,3.88,74024.0,-5.91,-40.91,-41.29,0,*59
1484831198.8,55988,3.88,74026.3,-5.91,-40.53,-40.73,0,*56
1484831200.02,55989,3.88,74022.0,-5.91,-40.91,-41.11,0,*5C
1484831201.25,55990,3.88,74016.8,-5.91,-41.29,-41.67,0,*57
1484831202.49,55991,3.88,74018.0,-5.91,-41.55,-41.87,0,*53
1484831203.72,55992,3.88,74018.3,-5.91,-40.47,-40.79,0,*52
1484831204.95,55993,3.88,74016.8,-5.89,-40.47,-40.73,0,*50
1484831206.19,55994,3.88,74018.3,-5.91,-40.79,-40.91,0,*5F
1484831207.42,55995,3.88,74016.0,-5.91,-40.35,-40.59,0,*52
1484831208.65,55996,3.88,74016.8,-5.91,-40.53,-40.79,0,*53
1484831209.85,55997,3.88,74018.3,-5.87,-41.11,-41.49,0,*50
1484831211.08,55998,3.88,74016.3,-5.89,-41.29,-41.61,0,*50
1484831212.31,55999,3.88,74010.5,-5.89,-41.61,-41.87,0,*55
1484831213.57,56000,3.88,74008.8,-5.89,-41.87,-42.05,0,*5E
1484831214.78,56001,3.88,74012.5,-5.91,-41.73,-41.99,0,*5B
1484831216.04,56002,3.88,74006.3,-5.93,-41.23,-41.49,0,*52
1484831217.28,56003,3.88,74008.8,-5.91,-41.67,-41.99,0,*5C
1484831218.53,56004,3.88,74014.3,-5.91,-41.67,-41.93,0,*51
1484831219.78,56005,3.88,74016.3,-5.93,-42.37,-42.75,0,*5F
1484831221.01,56006,3.88,74022.5,-5.91,-41.41,-41.81,0,*54
1484831222.24,56007,3.88,74022.0,-5.93,-41.41,-41.61,0,*59
1484831223.46,56008,3.88,74022.8,-5.91,-40.91,-41.11,0,*5F
1484831224.71,56009,3.88,74020.0,-5.91,-40.59,-40.79,0,*55
1484831225.92,56010,3.88,74022.8,-5.91,-41.17,-41.49,0,*54
1484831227.18,56011,3.88,74020.8,-5.93,-41.23,-41.49,0,*50
1484831228.39,56012,3.88,74022.5,-5.91,-40.73,-40.91,0,*51
1484831229.6,56013,3.88,74020.8,-5.91,-40.47,-40.73,0,*5B
1484831230.8,56014,3.88,74020.3,-5.91,-40.53,-40.73,0,*59
1484831232.07,56015,3.88,74028.3,-5.93,-40.85,-41.03,0,*57
1484831233.33,56016,3.88,74024.8,-5.93,-41.41,-41.81,0,*57
1484831234.58,56017,3.88,74024.5,-5.91,-41.55,-41.93,0,*52
1484831235.79,56018,3.88,74026.8,-5.91,-41.49,-41.73,0,*5E
1484831237.03,56019,3.88,74028.8,-5.91,-41.11,-41.35,0,*50
1484831238.27,56020,3.88,74034.8,-5.91,-40.59,-40.91,0,*58
1484831239.56,56021,3.88,74028.3,-5.93,-40.59,-40.85,0,*5E
1484831240.79,56022,3.88,74034.8,-5.91,-40.97,-41.29,0,*5A
1484831242.0,56023,3.88,74032.8,-5.91,-40.73,-40.91,0,*53
1484831243.23,56024,3.88,74030.3,-5.91,-40.73,-40.79,0,*52
1484831244.46,56025,3.88,74030.8,-5.89,-40.65,-40.73,0,*57
1484831245.66,56026,3.88,74032.3,-5.87,-40.53,-40.73,0,*5F
1484831246.91,56027,3.88,74030.3,-5.89,-40.29,-40.53,0,*5F
1484831248.16,56028,3.88,74030.8,-5.89,-40.21,-40.47,0,*5D
1484831249.45,56029,3.88,74030.8,-5.89,-40.09,-40.41,0,*50
1484831250.66,56030,3.88,74030.8,-5.87,-40.65,-40.91,0,*51
1484831251.92,56031,3.88,74028.3,-5.89,-40.65,-40.85,0,*5B
1484831253.15,56032,3.88,74028.8,-5.89,-41.11,-41.29,0,*5D
1484831254.37,56033,3.88,74028.0,-5.89,-41.29,-41.61,0,*5B
1484831255.61,56034,3.88,74028.5,-5.89,-40.91,-41.11,0,*59
1484831256.87,56035,3.88,74024.5,-5.89,-41.41,-41.81,0,*5D
1484831258.1,56036,3.88,74024.0,-5.87,-41.61,-41.93,0,*51
1484831259.36,56037,3.88,74020.0,-5.89,-41.23,-41.49,0,*5F
1484831260.62,56038,3.88,74018.5,-5.89,-41.23,-41.61,0,*5A
1484831261.87,56039,3.88,74016.8,-5.89,-41.49,-41.81,0,*59
1484831263.16,56040,3.88,74020.0,-5.89,-41.23,-41.23,0,*53
1484831264.42,56041,3.88,74022.3,-5.89,-41.03,-41.23,0,*50
1484831265.68,56042,3.88,74020.0,-5.89,-40.85,-41.11,0,*5D
1484831266.95,56043,3.88,74018.5,-5.89,-40.85,-41.03,0,*5F
1484831268.2,56044,3.88,74016.0,-5.89,-40.29,-40.65,0,*5F
1484831269.43,56045,3.88,74022.0,-5.89,-40.73,-40.91,0,*5A
1484831270.65,56046,3.88,74016.5,-5.87,-40.73,-40.91,0,*57
1484831271.86,56047,3.88,74020.8,-5.87,-40.73,-40.91,0,*56
1484831273.1,56048,3.88,74018.0,-5.87,-40.41,-40.53,0,*56
1484831274.33,56049,3.88,74016.5,-5.87,-40.85,-41.11,0,*58
1484831275.55,56050,3.88,74016.3,-5.87,-40.91,-41.11,0,*55
1484831276.78,56051,3.88,74018.5,-5.87,-40.53,-40.85,0,*56
1484831278.01,56052,3.88,74016.5,-5.87,-40.29,-40.47,0,*56
1484831279.24,56053,3.88,74018.3,-5.87,-40.29,-40.53,0,*52
1484831280.48,56054,3.88,74018.0,-5.87,-40.29,-40.53,0,*55
1484831281.68,56055,3.88,74020.5,-5.83,-40.47,-40.65,0,*5D
1484831282.91,56056,3.88,74016.8,-5.83,-40.35,-40.59,0,*54
1484831284.17,56057,3.88,74012.5,-5.85,-40.35,-40.59,0,*53
1484831285.4,56058,3.88,74018.8,-5.83,-40.97,-41.41,0,*5A
1484831286.66,56059,3.88,74018.5,-5.85,-40.97,-41.41,0,*5D
1484831287.86,56060,3.88,74020.5,-5.83,-41.17,-41.41,0,*58
1484831289.11,56061,3.88,74018.0,-5.85,-40.47,-40.79,0,*51
1484831290.39,56062,3.88,74022.3,-5.85,-40.79,-41.23,0,*51
1484831291.63,56063,3.88,74020.0,-5.85,-40.65,-40.79,0,*53
1484831292.89,56064,3.88,74022.3,-5.83,-40.21,-40.59,0,*50
1484831294.09,56065,3.88,74022.8,-5.83,-40.35,-40.47,0,*5B
1484831295.35,56066,3.88,74016.5,-5.83,-40.59,-40.85,0,*5C
1484831296.61,56067,3.88,74014.3,-5.83,-40.85,-41.23,0,*51
1484831297.84,56068,3.88,74018.8,-5.83,-40.65,-40.85,0,*5D
1484831299.07,56069,3.88,74014.8,-5.83,-40.35,-40.59,0,*58
1484831300.33,56070,3.88,74012.5,-5.79,-40.79,-40.97,0,*5F
1484831301.55,56071,3.88,74012.8,-5.79,-40.91,-41.17,0,*51
1484831302.78,56072,3.88,74016.5,-5.79,-40.79,-41.11,0,*52
1484831304.04,56073,3.88,74030.0,-5.83,-40.97,-41.23,0,*57
1484831305.27,56074,3.88,74016.5,-5.83,-41.23,-41.61,0,*58